{"data":{"norad_id":63075,"epoch":"2026-09-19T21:00:36.823680Z","epoch_age_seconds":75976,"freshness":"FRESH","line1":"1 63075U 25036A   26262.87542620 -.00000357  00000+0  00000+0 0  9993","line2":"2 63075   0.0750 252.3425 0004949 285.8955 246.2140  1.00275068  5908","mean_motion":1.00275068,"eccentricity":0.0004949,"inclination_deg":0.075,"raan_deg":252.3425,"arg_perigee_deg":285.8955,"mean_anomaly_deg":246.214,"bstar":0,"rev_number":590,"period_min":1436.0498862988,"perigee_km":35764.807771843,"apogee_km":35806.541512606,"semimajor_km":42163.811642224,"source":"CELESTRAK","updated_at":"2026-09-20T09:00:35.342544Z"}}